RH
4 4 3 3 3 3 2 2 2 2 2 2 2 2 2 2 2 2 2 2 2 2 2 2 2 2 1 1 2 3 4 4 3 4 3 3 4 3 3 2 3 2 3 13 22 26 34 52 67 70 69 55 42 44 46 52 60 61 62 72 83 70 51 47 46 44 39 37 39 38 42 51 57 52 53 57 55 57 53 54 66 66 66 77 86 89 86 79
4 4 4 4 4 3 3 3 3 3 2 2 2 2 2 2 2 2 2 2 2 2 2 2 2 2 2 2 2 3 4 4 4 4 3 3 3 3 3 2 2 2 4 9 16 28 43 60 73 78 75 56 41 46 52 57 63 65 66 72 77 70 57 51 53 50 42 41 40 34 35 50 63 56 52 52 50 54 48 52 65 60 55 64 73 79 82 82
4 4 4 4 4 4 4 3 4 3 3 3 3 2 2 2 2 2 2 2 2 2 2 2 2 2 2 2 1 2 3 3 4 3 3 3 3 3 2 3 3 2 4 9 19 38 55 60 63 61 57 48 40 46 58 63 65 66 64 66 71 68 61 58 58 55 47 44 40 35 36 46 56 53 50 43 40 45 43 50 60 55 53 59 62 68 80 82
3 4 3 4 3 3 3 3 4 3 4 4 3 3 2 2 2 2 2 2 2 2 2 2 2 2 2 2 1 2 2 3 3 3 3 3 3 3 2 2 2 3 4 12 26 43 50 49 48 43 38 40 41 48 61 66 65 63 59 63 68 63 60 60 60 58 54 48 44 39 37 44 52 54 55 43 33 36 35 44 55 51 47 52 55 59 72 76
4 4 3 4 3 3 3 3 3 3 3 3 3 4 3 3 2 2 2 2 2 2 3 2 2 2 2 2 2 2 2 2 3 3 3 3 3 2 3 3 2 3 4 13 30 41 44 44 47 42 34 35 38 45 60 69 65 60 59 60 60 56 57 62 62 60 59 55 52 44 38 53 64 58 59 55 48 46 36 37 49 51 47 44 48 53 60 67
4 4 4 4 3 3 3 3 3 3 3 3 3 3 3 4 3 3 2 2 2 2 2 2 3 3 2 2 2 2 2 2 2 3 3 3 3 3 3 3 3 3 3 11 23 36 46 44 43 41 31 32 41 49 62 71 64 57 56 53 52 56 59 63 63 60 61 61 61 51 40 56 71 62 58 59 58 55 45 42 46 47 43 39 48 57 51 55
4 4 4 4 4 3 3 3 3 3 3 3 3 3 3 4 3 3 2 2 2 2 2 2 3 2 3 2 2 2 2 2 2 2 3 3 3 3 3 3 3 2 3 6 10 21 33 34 37 35 23 25 43 57 65 65 59 55 56 52 54 61 61 62 62 59 61 61 63 59 46 50 63 62 56 51 49 47 44 44 45 43 39 38 53 65 52 44
5 4 4 4 4 4 4 4 4 3 3 3 3 3 3 3 3 4 3 3 2 2 2 2 3 3 3 3 2 2 2 2 2 2 3 3 3 3 3 3 2 3 2 3 4 9 18 26 34 32 18 24 45 60 64 59 56 59 61 61 62 64 65 66 63 59 59 61 60 60 54 51 54 57 53 47 46 46 44 43 40 40 39 37 45 56 54 49
5 5 5 4 4 4 4 4 4 4 4 4 4 3 3 3 3 3 3 3 2 2 2 2 3 3 3 3 2 2 2 2 2 2 3 2 3 3 3 3 2 3 2 3 3 4 12 25 35 31 18 22 42 51 54 57 59 60 60 62 63 64 67 67 65 60 60 62 60 62 62 54 52 55 54 53 54 52 53 51 44 40 40 38 36 39 41 46
5 5 5 4 4 4 4 4 4 4 4 4 4 4 4 3 3 3 4 4 3 3 2 2 2 3 3 3 3 2 2 2 2 2 3 3 3 3 3 3 2 3 3 3 2 3 10 23 35 31 15 15 33 42 47 57 62 60 56 58 60 61 64 65 67 63 60 61 61 67 68 56 51 56 57 56 56 55 55 55 52 48 47 46 44 44 40 38
5 5 5 5 4 4 4 4 4 4 4 4 4 4 4 4 4 3 4 4 3 3 2 2 2 3 3 3 3 2 2 2 2 2 2 3 3 3 3 2 3 3 3 3 3 3 5 16 28 26 14 18 33 41 51 62 62 59 56 58 59 59 63 66 68 62 57 60 62 69 71 59 52 56 59 54 53 55 53 52 53 54 54 53 52 54 52 45
5 5 6 5 5 5 5 5 5 5 5 5 4 4 4 4 4 3 4 4 4 4 3 2 2 3 3 3 3 2 3 2 2 2 2 3 2 3 3 2 3 2 3 3 2 4 2 11 24 23 17 25 38 46 56 61 56 56 57 60 61 59 61 65 68 61 55 58 60 67 73 65 55 56 59 52 49 52 51 50 51 53 55 58 59 60 61 58
6 6 6 6 6 6 6 6 6 6 6 5 5 5 5 4 4 4 4 4 4 4 3 3 2 3 3 3 3 3 3 2 2 2 2 2 2 3 3 2 3 2 3 2 2 4 2 9 21 23 19 24 40 51 53 50 49 52 56 60 60 59 63 65 65 57 53 58 58 61 68 67 58 52 54 50 47 47 46 46 46 49 53 56 60 63 67 67
6 6 6 7 7 7 7 8 7 7 7 6 5 5 5 5 5 4 4 4 4 4 3 3 2 3 3 3 4 3 3 3 3 3 2 2 2 3 3 2 3 2 3 2 3 4 3 11 19 17 15 18 28 38 41 43 45 48 53 59 57 59 64 64 62 53 52 59 57 55 59 65 63 55 52 50 47 44 41 41 41 46 51 54 57 60 64 68
6 6 7 7 8 8 8 8 8 8 8 7 6 6 5 5 5 4 4 4 4 4 4 3 3 3 3 4 4 3 3 3 3 3 3 2 2 2 2 2 3 2 3 2 3 3 3 11 15 12 17 29 34 37 40 41 42 45 51 55 56 60 62 61 59 51 54 61 55 53 56 63 67 61 57 51 45 42 37 36 37 39 45 50 53 56 60 64
6 6 6 7 7 8 8 9 9 9 9 9 7 6 6 5 5 5 4 4 4 5 4 4 3 3 3 4 4 4 4 3 3 3 3 3 3 3 2 2 3 3 3 2 3 3 3 6 9 11 23 41 50 52 53 48 46 50 52 52 55 60 59 60 60 52 57 61 53 54 57 64 70 65 60 54 45 41 35 33 34 32 34 39 44 49 54 59
7 6 7 7 7 7 8 8 8 8 9 10 9 7 6 5 5 5 4 4 4 5 5 4 3 3 3 4 4 4 4 3 3 3 3 3 2 3 3 2 3 3 3 3 3 2 3 3 4 14 31 47 55 56 57 56 56 59 56 55 57 55 52 57 57 49 55 58 53 59 62 65 71 66 62 57 45 39 34 31 30 27 25 26 30 36 44 51
8 7 8 7 7 7 7 8 8 8 9 10 9 8 7 6 5 5 4 4 5 5 5 4 4 3 3 4 4 4 4 4 3 3 3 3 3 3 3 3 2 3 3 2 3 2 4 3 3 21 40 48 51 52 55 59 61 61 57 57 60 53 46 49 49 44 51 55 54 61 64 65 70 69 69 66 49 37 32 29 26 24 22 20 19 21 27 34
9 9 9 9 8 8 8 8 8 9 9 10 9 9 7 6 6 5 5 4 5 5 5 4 4 4 3 4 4 4 4 4 4 4 3 3 3 3 3 3 2 3 3 2 3 2 3 3 5 23 37 36 42 51 55 59 60 59 54 55 59 51 43 45 45 45 48 52 55 58 56 57 64 69 75 73 53 36 30 27 23 22 21 19 18 15 15 17
9 9 9 9 9 9 9 9 9 9 9 9 9 9 8 6 6 5 5 4 4 5 6 5 4 4 4 4 4 4 4 4 4 4 4 3 3 3 3 3 2 3 3 2 3 2 3 3 2 18 33 34 41 51 55 58 60 60 56 55 56 48 42 44 45 46 47 51 56 55 52 52 60 70 73 68 53 38 30 25 21 20 20 19 18 16 13 12
8 8 8 8 8 8 8 8 8 8 9 9 8 8 8 7 6 5 5 5 4 5 6 5 5 4 4 4 4 4 4 4 5 4 4 4 3 3 3 3 3 3 3 3 3 3 3 3 3 15 32 36 40 48 52 55 58 59 57 58 56 48 42 40 41 44 46 51 54 53 53 54 59 70 68 58 50 41 33 27 21 19 19 19 19 18 16 15
6 6 6 7 7 7 7 7 7 7 8 8 8 8 7 7 6 6 5 5 5 5 6 6 5 4 4 4 4 4 4 4 5 5 5 4 4 4 3 3 3 3 3 3 3 3 3 3 4 11 28 40 43 45 46 47 48 49 49 52 51 45 39 36 36 40 43 50 55 55 58 57 58 69 66 55 50 40 32 27 23 20 17 17 18 18 19 17
6 6 6 6 6 6 6 7 7 8 8 8 8 8 7 7 6 6 5 5 5 5 6 6 5 5 4 4 4 4 4 5 5 5 5 4 4 4 3 3 3 3 3 3 3 3 3 4 5 9 27 44 44 40 41 42 43 43 41 42 43 39 37 36 35 38 44 51 55 57 62 62 61 68 66 55 48 39 31 28 26 24 19 20 22 21 25 25
7 7 7 7 7 7 7 7 8 8 8 9 8 8 7 7 6 6 5 5 5 6 6 6 5 5 5 4 5 4 4 5 5 5 5 4 4 4 4 3 3 4 3 3 3 3 5 6 6 12 26 35 33 33 40 42 42 43 40 38 42 43 40 38 38 42 49 53 55 56 62 67 67 69 65 52 44 42 37 32 29 27 25 27 30 30 36 35
8 8 8 9 8 9 9 9 9 9 9 9 8 8 7 6 6 6 5 5 5 6 6 7 6 5 5 5 5 4 5 5 4 5 4 4 4 4 4 3 3 4 3 4 3 3 7 6 5 14 22 24 22 28 38 39 39 40 38 40 49 51 46 44 44 48 53 55 57 59 64 73 72 67 61 49 42 42 39 36 34 30 30 32 29 25 28 24
8 8 9 9 9 10 10 9 9 9 9 8 8 7 7 6 6 5 6 6 6 6 7 7 6 5 5 5 5 5 5 5 5 5 4 5 4 4 4 3 4 3 3 4 3 4 7 6 10 19 21 17 16 24 31 32 34 37 37 42 49 49 46 47 48 52 59 62 62 61 64 74 78 69 59 51 47 47 41 38 39 32 26 27 24 18 15 12
7 7 8 9 10 10 9 10 10 9 9 8 8 7 7 7 6 6 7 6 6 8 7 7 7 7 7 6 5 5 4 5 5 5 5 5 4 4 4 4 4 3 4 3 3 4 5 8 18 23 23 24 26 30 30 26 30 36 39 43 46 47 49 52 52 54 60 60 58 61 64 70 81 74 61 56 54 52 43 38 46 47 35 24 19 17 13 10
6 6 7 8 9 9 10 9 9 9 9 8 8 8 8 8 7 7 7 6 11 13 9 7 7 7 8 8 6 6 5 5 5 4 5 5 5 4 4 4 4 4 4 3 4 5 3 10 23 25 28 37 37 36 34 27 30 38 41 45 46 46 48 52 57 57 55 51 50 58 64 69 81 78 66 63 57 50 43 37 50 63 57 42 27 16 12 10
6 6 6 7 8 9 9 9 9 9 8 8 8 9 10 9 9 9 7 9 19 22 16 13 11 8 7 7 7 6 5 5 5 5 5 5 5 4 4 4 4 4 4 3 4 7 9 15 22 25 32 40 39 38 36 31 33 39 40 45 50 49 45 48 57 57 51 49 50 54 58 67 80 83 72 64 61 58 50 43 48 54 52 49 35 17 11 11
6 6 6 6 7 9 9 9 9 9 8 8 9 10 11 10 10 9 6 15 28 30 26 24 22 19 12 7 6 7 7 6 5 5 5 5 4 4 4 4 4 4 4 4 4 9 15 16 15 21 27 30 32 36 35 32 33 36 38 45 56 57 54 55 57 56 52 54 57 55 55 65 78 84 76 66 67 70 60 53 58 56 46 38 26 14 11 11
5 6 6 5 7 8 9 10 10 9 9 9 9 11 11 10 11 8 8 23 38 35 32 33 30 27 24 16 8 6 7 7 6 5 5 5 4 4 4 4 4 4 4 4 4 9 14 13 12 18 22 23 29 32 34 36 35 36 40 45 50 51 56 61 58 56 55 57 60 56 55 67 77 80 77 70 68 67 61 58 58 54 45 30 18 13 12 10
5 5 6 6 6 7 8 9 10 10 9 10 11 12 12 11 10 7 10 30 45 42 39 41 33 25 26 24 15 9 8 7 7 6 5 5 4 4 4 4 4 4 4 4 4 8 12 13 14 19 21 28 36 36 38 42 40 40 42 43 43 43 49 56 53 53 54 54 59 59 59 70 78 75 71 68 64 60 57 55 48 44 43 31 17 14 12 10
5 4 5 6 6 8 9 9 10 10 10 11 12 12 12 11 8 8 16 31 45 49 46 44 40 30 26 26 21 16 12 8 7 6 6 6 5 4 5 4 4 4 4 5 4 6 12 15 16 17 20 27 34 37 39 40 38 39 40 40 40 40 44 49 49 50 53 55 62 67 69 75 75 70 68 67 63 61 58 52 45 45 47 37 22 16 13 11
4 4 5 6 7 9 10 11 12 11 12 12 13 13 11 10 7 10 24 38 46 51 46 42 45 40 31 26 22 19 16 10 7 6 6 7 6 5 5 4 5 5 4 5 5 6 12 18 17 14 16 22 26 28 30 32 35 37 39 42 43 43 44 46 45 45 48 54 60 68 74 76 70 67 70 70 68 67 61 53 47 47 50 42 29 19 14 11
5 4 5 6 8 10 11 13 13 13 13 13 13 12 9 10 7 11 35 54 53 48 42 37 44 49 39 27 21 19 15 10 8 7 6 7 6 5 6 5 5 5 4 5 5 5 9 14 15 16 20 24 26 27 25 26 34 39 39 38 39 41 42 42 45 48 53 58 60 63 69 68 66 68 69 68 69 66 59 51 45 45 46 42 33 24 17 13
5 4 5 7 9 11 13 14 13 14 14 13 13 10 10 9 5 17 47 60 52 47 47 42 44 53 46 27 19 17 14 13 13 10 8 8 8 7 7 7 6 5 4 5 5 5 7 11 16 22 27 27 28 31 29 26 31 36 37 36 37 41 43 45 53 61 65 66 63 61 63 62 65 74 71 65 66 63 55 49 44 42 40 37 37 31 21 16
5 5 7 8 10 13 14 14 14 14 13 13 12 9 10 7 9 39 62 54 42 47 62 66 59 55 47 32 25 20 16 17 15 13 16 15 14 14 11 8 8 6 5 5 5 7 12 16 19 25 29 28 28 30 32 32 29 29 33 38 43 49 49 49 59 67 67 68 67 63 62 62 69 78 74 66 66 64 55 49 44 41 36 35 39 34 22 17
5 7 8 9 11 12 14 14 13 13 12 12 10 9 11 8 21 60 71 53 47 50 66 79 69 56 47 40 40 32 23 24 22 22 27 24 22 24 21 18 13 8 6 6 5 9 18 24 25 27 28 29 30 28 31 35 32 30 34 40 46 51 52 56 65 69 67 68 68 63 60 65 71 77 77 71 68 66 60 54 50 45 39 36 37 31 22 20
5 8 8 9 10 11 15 14 12 13 10 10 11 9 10 9 29 65 67 52 56 61 68 77 71 64 55 46 46 39 32 36 36 33 32 30 29 29 30 30 24 16 10 6 5 10 20 27 27 27 28 33 35 30 30 34 35 35 38 42 48 49 54 68 74 71 68 68 67 60 57 61 66 69 75 75 71 66 62 59 57 53 45 38 36 31 26 25
6 8 8 8 9 10 14 13 12 12 8 10 11 7 13 19 32 59 66 57 62 73 79 76 72 72 62 49 49 46 44 46 43 38 35 34 34 32 32 34 30 24 17 8 7 10 17 25 27 28 32 38 38 32 30 33 34 37 39 42 48 50 55 70 76 72 69 68 65 59 55 57 62 65 68 69 68 64 60 58 58 57 50 41 37 35 31 29
6 9 9 8 9 10 12 13 13 10 8 12 10 8 29 45 43 51 61 60 64 77 81 72 70 71 58 49 51 49 49 49 43 42 40 37 36 32 33 35 30 27 21 11 10 11 15 25 31 35 40 43 40 32 31 36 36 39 43 42 44 50 58 68 71 69 69 70 68 64 60 61 65 68 64 61 62 61 56 54 54 55 52 44 39 37 33 30
6 9 9 7 8 10 12 13 12 10 9 12 9 14 38 57 59 56 57 60 65 75 76 64 66 72 58 47 49 48 50 52 47 44 42 40 39 33 34 36 33 31 26 13 9 10 16 26 34 39 42 44 43 35 33 42 46 44 46 45 45 55 65 68 67 64 62 66 69 66 62 60 63 67 66 63 60 56 52 52 53 53 50 44 41 36 30 29
6 7 8 7 7 9 10 12 12 11 11 12 11 14 22 37 54 57 53 57 68 80 79 61 61 72 59 44 47 48 50 53 48 43 43 43 40 35 35 36 33 35 31 17 9 11 17 27 35 38 40 44 47 41 38 46 54 52 50 49 50 60 67 65 65 63 60 63 65 62 62 62 63 66 67 67 60 50 48 52 54 53 45 39 39 35 28 26
6 6 8 8 7 8 9 10 12 12 11 11 12 12 13 26 47 50 43 49 64 79 84 70 67 77 64 44 46 51 53 55 50 44 46 46 39 35 36 35 33 35 33 21 15 16 18 25 35 38 38 43 48 47 44 49 56 59 56 51 50 56 62 64 64 62 60 63 61 58 62 65 63 62 64 67 60 49 48 52 54 54 46 37 35 31 27 28
6 6 7 8 9 9 9 10 12 13 12 11 12 12 12 21 39 42 39 53 70 79 81 78 77 79 65 46 45 52 55 57 54 47 45 44 40 36 36 37 37 36 32 25 21 20 19 24 37 40 38 44 50 52 51 53 58 59 55 53 52 51 57 66 70 65 59 59 57 55 57 60 60 60 63 64 57 49 52 54 53 53 48 39 33 27 26 29
7 7 7 8 9 9 12 14 16 16 14 11 12 13 11 19 32 32 32 55 81 82 76 77 79 77 66 50 45 51 56 58 56 48 43 40 39 39 37 38 39 37 33 28 23 24 24 26 36 42 40 42 50 56 58 58 60 58 53 54 55 53 55 63 70 71 63 57 59 61 58 57 62 65 62 59 52 49 53 56 53 50 46 39 32 25 24 25
8 7 7 8 9 9 12 17 19 20 18 14 14 14 11 17 26 26 26 46 73 78 70 68 69 69 62 51 50 58 61 60 56 47 43 40 39 41 40 36 36 36 34 30 25 26 28 28 32 36 36 38 45 54 59 60 61 60 56 57 57 56 56 57 61 66 61 56 63 69 64 62 67 65 57 53 49 46 53 57 52 47 43 37 29 23 21 20
9 8 7 8 9 9 11 16 20 21 21 20 17 15 14 13 16 23 29 42 62 72 68 61 54 52 52 52 58 62 59 59 59 51 46 45 43 43 40 34 35 36 33 30 28 28 30 31 33 33 35 40 45 49 53 56 59 59 56 58 61 60 57 55 57 59 57 59 66 71 70 69 67 61 57 55 48 43 49 55 49 43 40 34 27 23 19 18
11 9 8 7 8 10 12 18 23 23 23 24 22 19 19 17 16 19 25 40 61 72 74 69 54 47 55 61 63 59 53 59 65 58 50 48 46 45 41 36 35 35 33 32 31 31 31 32 36 35 34 38 42 43 44 47 50 49 45 46 53 59 60 59 62 63 61 63 67 69 71 70 64 60 60 58 51 43 44 48 45 42 39 35 30 25 21 18
12 10 8 8 8 9 12 21 31 31 26 26 27 27 26 23 23 23 26 42 65 76 79 73 58 55 66 66 61 60 59 63 66 59 53 50 47 47 47 45 40 37 40 43 39 34 31 32 38 40 36 36 39 38 37 39 40 40 40 41 43 48 49 50 58 67 68 67 68 69 71 71 68 65 61 57 53 47 42 40 39 38 37 35 32 29 25 22
12 11 9 9 8 8 12 21 33 38 33 29 31 32 30 25 26 33 40 49 65 80 82 70 61 69 78 69 61 66 71 67 63 59 55 53 53 53 52 51 47 45 50 53 47 40 34 33 39 46 45 47 51 47 43 45 45 41 44 50 50 47 42 38 48 66 71 68 69 70 71 71 70 65 60 55 54 50 43 39 37 37 36 34 31 29 28 27
14 11 10 9 9 9 11 16 25 36 39 35 31 29 29 28 27 33 46 55 62 74 79 70 63 72 82 77 67 68 72 67 61 59 56 54 57 58 55 55 55 53 56 54 44 40 37 33 37 47 53 57 60 56 49 48 47 44 44 50 56 58 55 49 55 69 73 71 74 76 73 70 67 62 59 56 53 50 46 42 40 39 37 34 31 28 27 27
Wind_Speed
8 8 8 8 9 9 9 9 9 9 9 9 10 10 9 9 8 8 8 8 7 7 7 7 7 7 6 5 4 3 4 5 5 3 3 2 2 4 5 5 5 4 3 4 10 13 15 20 19 16 12 7 7 12 14 17 20 24 28 27 23 22 20 20 20 18 16 16 14 11 11 11 9 6 4 2 2 2 2 2 2 2 3 4 6 6 7 8
8 8 8 9 9 10 10 9 9 9 9 9 10 10 10 9 9 8 8 8 7 7 7 7 6 7 6 5 4 4 5 6 4 3 3 2 2 3 3 4 4 2 2 5 11 15 18 20 19 13 7 4 6 13 18 20 22 26 28 24 19 20 20 20 21 19 18 17 14 11 11 11 10 7 4 2 2 4 5 4 3 3 2 2 3 5 8 8
8 8 9 9 9 10 10 10 10 10 10 10 10 10 10 10 9 9 8 8 8 7 7 6 6 6 6 5 5 4 5 5 3 3 4 3 2 1 2 3 2 2 1 6 13 19 21 19 16 11 7 4 7 16 21 23 24 24 23 22 18 17 18 19 21 20 19 17 15 13 11 10 8 7 5 2 2 4 4 4 3 3 2 1 2 4 6 5
8 8 9 9 9 10 10 11 11 12 11 11 10 10 10 10 10 9 9 9 8 8 7 6 6 6 6 5 5 4 4 4 4 4 4 3 2 1 2 2 1 0 2 8 15 19 19 18 15 10 7 7 10 15 19 21 24 22 21 20 15 15 17 18 21 22 21 20 18 14 12 11 8 7 5 3 3 4 4 3 3 2 2 3 3 3 5 5
9 9 10 10 10 10 11 11 12 12 13 12 12 11 11 11 10 10 9 9 8 8 8 7 6 5 5 5 5 4 4 3 3 5 5 4 2 1 2 2 2 1 2 8 16 18 17 17 13 8 7 9 11 14 18 19 20 18 19 17 12 14 17 19 22 23 24 23 22 16 12 12 10 7 6 4 3 3 4 4 3 3 3 4 4 3 4 7
11 11 11 12 12 11 12 12 12 13 13 13 13 13 12 11 11 11 10 9 9 8 8 8 7 5 5 5 5 5 5 3 3 5 6 5 4 2 2 3 3 3 3 7 12 16 17 13 9 5 2 7 12 14 16 13 14 15 16 14 13 17 19 21 24 25 26 27 26 20 13 12 11 9 7 6 4 2 2 2 2 3 5 5 4 4 4 7
14 13 13 13 13 13 13 13 13 13 13 14 14 14 13 12 12 12 11 10 9 9 8 8 7 6 6 5 4 5 6 4 4 5 5 6 5 4 4 4 4 4 4 5 7 11 12 7 6 4 8 5 15 13 9 6 11 13 12 13 16 19 21 23 27 29 30 30 28 22 16 13 12 10 8 8 6 3 1 1 2 4 6 6 5 5 7 8
16 16 15 15 15 14 14 14 14 14 14 14 14 14 14 14 13 12 12 11 10 10 9 8 8 7 6 5 4 6 6 4 6 5 5 5 5 5 5 5 5 5 5 5 5 7 8 5 5 5 10 6 16 10 5 6 12 14 16 18 17 18 20 24 28 30 32 31 29 24 19 15 13 11 9 8 5 4 3 2 3 5 7 7 6 6 8 8
18 18 17 17 17 16 15 15 15 15 15 15 15 15 15 15 14 13 13 12 12 11 10 9 8 7 6 5 4 7 6 4 5 5 6 6 5 5 5 5 6 5 6 5 4 5 6 4 4 7 7 8 14 8 8 12 15 15 18 19 16 16 18 22 26 30 31 31 29 24 20 17 15 13 10 7 5 4 4 3 3 4 6 6 6 6 7 8
20 20 19 19 18 18 17 17 16 16 17 16 16 16 15 15 15 14 13 13 12 12 11 10 9 8 7 6 5 8 7 5 5 6 6 6 6 5 5 6 6 6 7 5 3 4 4 4 5 7 5 6 11 11 14 18 14 10 14 16 17 18 18 20 25 29 29 29 30 24 19 18 15 12 9 7 5 5 4 3 3 1 2 3 4 4 6 7
22 21 21 20 19 19 18 18 18 18 18 18 17 16 16 16 15 15 14 14 13 13 12 11 10 9 8 7 7 10 8 6 7 7 8 8 7 6 5 6 7 7 7 5 3 3 2 3 5 7 2 7 10 16 20 17 9 4 8 13 16 18 19 22 24 27 28 28 29 23 18 17 15 12 8 5 5 4 3 3 3 3 2 1 0 1 4 6
23 23 22 21 20 20 19 20 19 19 19 19 19 18 17 17 16 16 15 14 14 13 13 12 11 10 10 9 9 11 8 7 8 8 8 8 7 7 7 7 8 7 7 6 4 2 1 3 4 6 3 9 13 20 21 14 8 5 8 11 14 19 21 22 21 25 27 26 27 24 19 17 14 12 8 5 4 3 3 2 4 5 5 5 4 2 1 3
25 24 23 23 21 21 20 21 21 21 20 20 20 19 19 18 17 16 15 15 14 14 13 13 12 11 12 10 8 11 9 8 8 7 8 8 8 9 8 8 8 8 8 7 5 4 1 3 4 5 5 10 17 21 19 16 12 11 14 12 13 17 20 21 20 24 26 24 26 27 22 18 14 11 9 7 5 3 3 3 5 6 7 8 7 5 4 2
27 26 25 25 23 22 22 22 22 22 22 22 22 21 20 19 18 17 16 16 15 15 14 13 13 12 13 9 8 11 9 8 9 7 7 8 8 9 9 9 9 8 8 7 6 6 4 5 4 4 5 7 12 13 14 16 11 15 18 14 14 15 17 19 20 24 25 22 26 28 26 21 15 12 10 9 6 3 3 4 6 8 9 10 9 8 7 5
30 29 28 27 26 25 24 23 24 24 23 24 23 22 21 20 19 17 16 16 16 16 14 14 13 13 14 11 10 12 10 9 10 9 8 9 9 10 10 10 10 9 10 8 8 8 7 7 6 4 6 7 9 7 7 9 10 18 19 14 13 13 17 18 19 25 23 22 28 29 25 19 14 13 12 10 7 4 3 4 7 9 11 11 11 11 10 9
32 31 30 30 29 28 27 26 26 26 25 25 25 24 23 21 20 18 17 16 17 16 15 15 14 14 15 11 12 14 12 12 12 10 10 10 10 11 11 11 10 10 10 9 10 9 8 9 8 7 9 11 14 11 6 6 11 17 16 14 14 12 16 16 17 25 23 22 30 29 22 15 12 12 10 9 7 4 3 5 7 10 12 12 13 13 13 13
34 34 33 33 33 32 30 29 28 28 27 27 26 25 24 23 21 19 17 16 17 17 16 15 15 15 15 13 15 17 16 15 14 12 12 12 12 11 11 11 11 11 11 10 11 10 8 8 7 9 14 17 18 15 11 10 12 13 10 11 13 12 15 14 17 25 23 24 29 26 20 13 12 11 7 7 6 3 2 5 7 10 12 13 13 13 14 14
36 36 35 35 35 35 34 32 31 30 29 28 28 26 25 23 21 19 17 16 17 18 17 17 16 16 16 16 18 19 16 14 13 13 14 13 13 13 13 13 13 13 12 11 11 10 9 8 8 12 18 20 19 18 15 11 11 11 7 7 9 12 17 16 20 25 22 24 25 22 20 16 13 10 7 6 4 2 2 5 7 10 12 13 13 13 14 14
38 37 37 36 36 37 36 34 33 32 30 29 28 27 26 24 22 19 17 17 18 18 18 18 17 17 17 18 19 18 15 12 11 12 14 14 14 14 14 14 14 13 12 11 11 10 9 9 10 14 16 15 16 17 13 9 6 5 6 7 6 12 18 18 20 21 19 23 22 19 22 21 14 8 7 6 1 2 3 4 6 8 10 12 13 13 14 14
39 38 38 37 37 37 37 35 34 33 31 29 29 28 26 25 22 19 18 18 18 18 19 18 18 18 18 19 19 19 17 14 12 13 14 14 14 15 15 15 14 13 12 11 11 11 10 10 11 13 14 13 14 13 11 9 4 7 9 10 10 15 19 17 18 19 19 22 20 20 24 22 15 10 8 4 2 2 3 4 5 7 9 11 12 13 14 14
39 39 38 37 38 37 37 36 34 33 32 29 29 28 27 25 23 20 19 19 18 19 19 19 19 18 18 18 19 20 19 16 15 15 15 15 15 16 16 15 15 14 13 13 14 12 10 11 13 15 17 14 10 10 11 7 6 10 10 11 14 18 20 19 20 20 21 21 20 21 24 19 15 12 5 2 4 3 5 5 5 6 7 10 11 13 14 14
38 38 37 37 37 37 36 35 34 33 31 29 29 28 27 26 24 20 18 18 18 18 19 20 19 18 18 18 18 19 18 17 16 16 17 16 15 16 16 16 16 15 15 15 14 10 9 12 16 17 18 14 8 8 8 8 8 11 10 10 15 19 20 21 22 22 21 21 20 20 20 16 12 11 4 5 5 5 6 5 5 6 6 8 10 11 13 14
34 34 34 34 35 35 34 34 32 31 31 29 29 28 27 26 25 20 18 19 18 18 20 21 20 19 19 18 18 19 18 16 16 17 18 16 16 18 18 18 17 16 16 15 13 9 10 15 17 17 19 18 11 6 3 6 7 10 11 9 13 17 18 19 19 21 22 20 20 20 18 14 12 9 5 8 7 6 6 5 5 5 6 7 8 9 9 12
30 30 30 30 31 31 31 31 30 30 29 28 28 27 25 25 23 21 18 18 19 19 20 21 20 19 19 19 19 19 18 18 19 21 20 19 19 19 19 19 17 17 16 15 13 12 15 19 18 16 19 19 14 8 3 3 3 8 10 8 10 12 13 15 16 18 20 20 22 21 16 13 11 7 6 11 9 7 6 5 5 5 6 7 8 8 6 8
26 26 27 27 27 27 27 28 28 27 27 26 26 25 24 22 20 19 18 18 19 19 19 20 20 20 20 19 19 19 19 21 22 21 20 19 20 19 19 19 18 17 16 15 14 14 18 21 17 14 16 18 14 8 4 1 2 9 11 9 9 10 11 12 14 16 18 18 20 17 11 10 11 8 7 10 8 7 7 6 6 5 6 7 8 9 7 7
24 24 24 24 24 24 25 25 25 25 25 26 25 24 23 22 19 18 17 18 18 17 18 20 21 21 20 18 18 19 20 20 21 20 19 19 20 19 19 19 19 18 18 17 16 16 18 18 17 16 15 16 11 4 4 4 2 9 11 10 10 12 14 13 13 16 16 12 11 10 9 10 11 9 7 9 9 8 8 7 8 8 8 8 8 8 8 8
22 22 23 22 22 23 23 23 23 23 24 24 23 22 22 20 18 17 17 18 17 16 18 20 21 19 19 19 18 19 19 20 21 20 18 20 20 20 20 20 20 20 20 21 18 18 17 16 17 16 12 11 6 3 2 5 4 7 9 8 8 11 14 14 15 17 15 9 9 12 12 12 11 9 10 13 12 10 9 9 9 9 10 11 10 8 8 8
21 21 21 21 21 22 21 21 21 21 22 22 21 21 20 19 17 17 16 16 14 15 17 19 19 17 16 17 18 20 20 20 21 19 18 21 23 21 20 20 20 21 22 21 18 18 18 17 17 12 8 8 5 2 6 6 6 9 10 8 8 12 15 15 16 17 16 14 16 18 16 14 11 10 16 17 14 11 9 9 9 8 6 8 11 11 8 8
21 20 20 20 20 20 20 20 20 20 21 21 20 20 19 18 16 16 16 14 12 13 16 17 17 16 16 18 18 19 19 19 20 20 20 23 24 22 21 20 21 23 23 21 18 17 17 19 18 12 12 13 10 10 12 9 9 12 12 12 12 16 18 16 15 16 18 19 21 22 19 14 10 9 17 17 12 9 9 10 10 6 5 4 5 10 9 7
21 20 19 18 18 19 19 19 19 19 19 19 19 19 18 17 16 15 15 12 11 12 14 16 16 14 14 18 19 18 18 19 21 21 21 23 24 23 22 23 24 25 24 22 19 18 18 21 20 15 14 14 13 15 15 13 16 16 14 15 13 13 15 13 13 16 19 20 22 25 21 14 10 7 13 16 13 9 9 11 11 8 6 4 2 6 7 7
21 21 20 17 17 17 18 18 17 17 17 17 18 17 17 17 15 14 13 11 11 12 12 14 15 14 13 15 18 18 18 19 20 20 20 23 24 22 23 24 24 25 24 21 19 20 19 19 18 13 10 11 14 15 15 14 16 16 15 16 15 15 15 13 13 15 16 18 23 26 22 15 10 8 10 15 13 9 9 10 9 9 8 5 3 2 4 5
20 21 20 18 17 17 17 17 16 16 16 16 17 17 17 16 14 14 12 11 12 12 11 11 13 15 15 14 15 15 16 19 20 19 18 21 24 22 22 23 23 23 22 20 18 18 18 18 15 12 12 17 20 20 19 16 13 14 15 17 19 21 19 15 14 14 16 20 23 23 20 16 12 10 9 11 11 8 9 10 9 9 7 6 5 2 2 3
19 20 20 20 18 17 17 16 16 16 16 16 16 17 16 14 13 13 13 15 16 13 9 8 8 11 14 15 16 14 14 17 18 17 17 19 22 22 21 22 22 22 21 20 18 16 17 18 16 12 16 22 24 25 25 19 14 15 17 18 18 21 22 20 17 16 19 23 21 17 16 13 11 11 8 7 11 7 8 9 8 8 7 6 5 4 2 2
19 19 19 19 18 17 17 16 15 15 15 16 17 16 15 13 12 14 15 17 19 16 10 7 4 3 7 13 16 14 13 15 16 16 16 17 19 19 19 20 21 21 21 21 20 17 17 20 19 11 11 17 18 19 20 18 17 18 18 17 15 15 20 22 24 24 24 23 20 17 15 12 9 12 10 2 10 8 8 10 9 8 7 7 6 6 3 2
18 18 18 19 18 17 16 15 15 15 15 16 16 15 14 14 14 16 18 18 18 17 13 9 4 1 2 7 12 13 13 14 14 15 14 14 17 16 16 18 19 20 21 22 21 19 17 18 19 13 9 13 13 9 13 16 20 23 23 20 18 18 20 22 24 25 23 22 21 18 16 12 10 12 10 1 5 7 8 10 9 8 8 8 6 6 4 3
17 17 17 17 17 17 16 15 15 14 16 16 15 14 14 14 15 18 20 20 19 15 11 8 6 0 4 2 7 12 15 13 13 15 13 12 15 16 16 18 18 20 20 19 19 17 14 16 20 17 12 12 10 5 5 11 18 26 25 18 16 17 18 18 19 20 19 21 23 21 17 12 9 10 8 4 3 5 8 9 9 8 8 8 6 6 6 5
16 16 16 16 17 16 16 15 15 15 16 16 14 14 14 13 16 21 23 21 19 16 13 8 7 3 2 3 1 9 14 14 15 14 11 11 12 12 14 15 17 20 18 17 18 16 14 17 20 19 13 10 9 8 6 7 13 23 24 18 14 15 17 19 20 21 19 19 19 17 12 8 8 10 9 7 6 4 5 7 6 6 7 8 7 8 8 7
15 15 15 16 17 17 16 16 15 15 16 15 15 14 13 15 21 25 26 23 20 19 18 13 7 5 3 2 3 2 6 10 13 11 8 10 9 7 8 9 13 17 17 17 18 18 18 18 19 19 12 6 10 12 10 7 7 12 17 18 17 18 19 19 19 19 16 13 10 8 6 5 7 10 10 7 5 4 3 4 4 4 6 8 9 10 9 8
14 15 17 18 17 16 16 16 15 16 16 16 16 14 15 20 25 27 26 26 23 22 22 18 12 9 7 4 1 2 5 1 6 7 6 6 5 5 6 7 9 11 14 17 20 22 22 20 19 16 10 7 11 14 13 12 10 11 13 14 16 20 19 12 9 12 12 9 7 7 6 6 7 10 9 6 4 5 4 4 6 5 7 10 11 11 9 8
14 15 17 16 15 15 16 16 15 16 17 17 16 16 18 22 27 28 28 27 27 26 26 23 17 15 12 11 9 7 4 6 7 6 5 6 4 3 4 4 6 8 12 15 20 25 26 22 19 16 11 8 11 15 14 11 10 10 9 11 15 21 19 10 8 12 12 9 9 10 10 9 10 10 7 5 5 5 5 5 6 6 8 11 11 10 10 9
14 15 17 16 16 16 16 17 16 16 17 18 17 19 21 24 27 30 31 31 32 29 29 26 20 19 18 16 15 14 12 12 10 8 8 8 4 2 1 4 5 4 10 15 21 27 28 25 22 19 14 5 3 11 14 10 10 11 11 14 22 24 16 10 12 15 13 11 12 14 12 10 11 9 6 6 6 6 7 7 6 6 8 10 9 9 9 9
14 16 18 19 19 18 17 18 18 19 21 21 20 22 25 25 26 29 31 33 34 31 29 28 24 22 22 20 19 18 15 13 11 12 11 10 4 3 2 4 6 7 8 16 24 26 27 26 24 23 18 9 9 12 16 12 11 13 16 20 24 21 9 5 11 15 15 16 16 15 13 13 12 9 7 7 7 7 8 7 7 6 8 9 8 8 7 8
17 18 19 19 18 18 19 20 21 23 25 25 25 25 26 27 26 28 29 30 33 31 29 29 27 25 26 26 24 21 19 15 13 13 11 9 7 5 3 5 6 10 10 13 24 26 27 28 24 23 20 12 11 17 22 19 13 12 17 23 21 16 9 8 16 19 19 19 19 17 17 16 14 11 9 8 7 8 8 6 6 6 8 7 6 7 7 7
20 19 18 17 16 18 21 23 25 27 28 27 28 27 27 28 28 29 29 27 29 29 26 28 28 25 26 29 28 24 21 16 11 11 12 10 7 6 5 6 5 7 10 11 20 24 27 28 22 23 23 15 11 16 22 26 18 12 14 21 21 21 18 14 17 22 21 20 18 16 14 13 12 12 11 8 6 8 7 5 5 7 9 7 6 6 7 7
21 19 17 16 16 18 21 24 27 28 27 26 27 27 27 28 28 29 29 24 23 24 22 24 26 26 27 31 30 25 19 14 7 7 13 13 10 9 10 9 7 6 8 12 19 20 22 23 21 25 26 17 11 12 18 26 24 15 13 15 17 22 23 18 18 21 23 22 19 16 14 13 12 11 10 8 7 6 4 4 4 7 8 7 6 7 8 9
22 20 18 17 18 19 21 23 26 26 24 24 26 27 27 27 29 29 28 23 21 22 21 23 26 29 29 31 31 24 16 12 8 7 12 14 14 13 11 10 13 11 9 17 24 21 18 20 22 24 21 15 12 13 17 23 27 22 17 16 17 21 24 24 22 23 26 25 22 20 18 15 12 10 9 9 7 5 3 3 5 9 10 9 10 10 11 12
23 21 19 19 20 21 21 23 26 26 25 23 25 27 27 28 29 28 26 23 20 21 24 26 28 28 29 33 33 23 17 15 12 12 15 16 16 13 10 11 18 18 14 19 24 22 18 19 22 23 21 20 20 18 16 19 23 24 21 19 20 23 27 30 29 28 30 29 23 19 18 14 11 9 8 6 6 6 5 6 9 12 13 13 13 13 13 13
23 21 21 21 22 22 23 24 26 27 27 24 24 26 26 27 28 27 25 22 19 23 27 27 28 31 33 35 30 23 22 20 15 15 17 17 16 13 9 11 17 19 17 18 20 21 20 17 18 22 23 23 25 25 22 21 22 22 22 21 22 24 28 31 33 33 32 29 22 15 12 8 6 5 3 3 5 5 5 8 12 14 14 14 14 14 13 12
23 22 22 23 23 23 24 25 24 25 27 26 25 26 25 24 25 26 24 21 20 25 28 27 30 35 36 33 28 26 26 22 17 18 19 17 18 19 17 15 17 19 18 18 21 25 25 17 14 21 24 24 26 27 26 26 24 24 25 25 25 26 27 29 32 33 31 28 22 16 11 6 4 4 4 4 6 6 6 8 10 12 13 14 14 14 13 13
24 23 23 24 25 25 25 25 23 24 26 27 26 26 25 24 24 25 24 22 23 27 28 29 35 37 34 32 30 28 25 21 21 24 23 20 21 24 23 20 22 23 20 18 22 27 28 20 14 18 23 24 25 26 27 28 26 25 24 25 27 28 29 31 32 31 28 24 20 16 12 7 5 6 7 7 8 7 7 8 9 11 12 13 14 15 15 15
24 23 23 24 26 26 25 25 23 22 24 27 27 26 25 26 26 25 24 24 26 27 28 32 38 35 32 33 33 29 23 22 25 29 28 24 21 23 25 24 24 24 19 16 18 25 29 25 18 18 19 20 22 24 27 27 24 23 21 20 23 28 31 34 34 30 25 21 17 16 14 11 8 8 9 9 9 8 8 9 10 11 13 14 15 17 17 17
25 24 24 25 27 26 26 25 24 22 23 26 27 27 27 28 27 26 25 25 27 28 29 34 39 37 34 36 37 32 24 23 27 31 32 29 25 24 25 24 24 23 19 16 15 21 30 31 25 20 19 19 21 24 28 28 25 24 25 24 23 24 28 31 31 27 22 19 16 14 13 10 8 8 10 10 9 9 9 9 9 10 12 13 15 17 17 16
Wind_Direction
337 335 335 335 333 331 329 327 324 322 321 318 317 316 316 316 316 317 319 324 330 334 336 337 335 333 327 314 292 260 249 251 256 274 285 297 333 358 15 30 33 41 51 80 96 102 96 85 73 59 55 52 63 67 56 50 43 34 27 19 7 356 6 19 18 20 22 25 29 33 37 33 35 41 49 44 342 301 274 250 250 267 277 271 246 207 198 210
332 332 332 333 331 329 328 327 326 325 324 322 318 315 314 312 310 310 310 312 316 321 327 330 332 331 327 319 299 269 251 254 262 275 264 272 316 351 22 41 43 32 31 81 97 102 99 91 85 81 86 80 79 72 55 46 40 31 17 359 348 351 5 20 17 18 21 20 25 34 41 39 36 33 31 33 327 297 287 281 293 295 309 328 272 213 197 201
323 326 327 330 330 329 327 326 326 325 325 325 323 318 314 311 308 305 302 303 305 309 315 320 325 325 324 318 302 280 262 263 262 254 253 256 282 345 36 60 61 12 39 91 97 102 106 110 118 140 166 151 94 69 47 39 33 20 3 342 336 349 4 16 14 15 18 17 21 31 44 44 40 31 7 346 319 305 304 299 309 312 302 274 247 223 201 190
312 316 319 322 325 327 327 328 327 326 324 324 324 321 317 312 307 303 299 297 297 300 302 307 315 317 318 312 302 290 272 266 248 242 251 251 256 333 73 95 114 48 96 103 104 111 116 123 135 151 151 126 98 66 42 33 25 7 347 334 335 356 9 16 14 15 17 18 21 25 40 40 36 29 8 353 343 322 310 281 267 264 242 208 209 205 183 194
300 304 309 312 315 319 322 324 325 325 324 323 322 320 318 314 308 303 296 292 291 292 293 296 302 306 309 305 301 288 266 270 245 223 224 227 232 214 125 137 167 151 137 122 117 118 118 122 125 120 110 98 85 64 46 32 19 358 337 336 353 11 16 18 16 17 18 21 22 22 33 37 27 22 23 18 358 322 301 278 263 244 239 228 208 188 183 209
295 297 301 304 307 310 313 316 319 321 321 321 320 318 316 314 310 304 297 290 286 284 285 287 290 295 298 298 299 281 262 271 243 217 218 216 201 186 167 171 183 169 166 146 134 128 125 130 130 135 166 89 79 60 52 37 12 348 332 347 18 23 24 23 20 20 18 18 18 16 27 38 27 22 34 35 23 346 298 271 245 230 235 234 209 180 196 219
294 295 297 300 302 305 308 311 313 316 317 318 317 316 314 311 309 305 300 291 283 280 279 278 281 284 287 292 289 273 266 260 247 232 225 219 197 188 187 185 187 177 181 177 167 156 150 156 152 205 280 70 87 66 56 32 13 7 359 20 36 39 35 28 26 21 15 12 8 9 21 33 28 24 35 39 37 40 35 232 221 227 236 235 214 185 197 213
295 296 296 297 299 300 303 307 310 312 314 314 314 315 313 310 306 303 300 293 285 277 273 272 272 273 276 281 271 266 266 244 243 235 220 227 211 199 193 189 190 181 193 202 204 189 175 165 153 254 295 80 99 91 80 49 41 43 38 42 46 42 29 20 20 14 10 7 1 5 16 22 22 12 12 20 25 32 24 340 275 247 248 245 233 208 204 209
295 296 296 296 297 298 299 302 305 308 310 310 311 312 311 309 305 300 296 293 287 277 271 266 262 264 263 265 256 258 257 233 236 225 213 223 220 217 204 193 189 187 204 211 215 202 186 167 180 266 294 97 104 105 104 84 71 55 40 41 40 28 15 12 11 6 6 3 359 5 10 13 16 9 10 18 27 38 33 4 318 270 258 254 250 237 223 216
293 294 294 295 296 296 298 299 302 305 307 307 307 309 309 308 305 298 292 289 286 278 271 263 257 255 252 254 239 244 247 224 217 214 212 213 215 219 209 202 193 196 209 211 211 195 190 165 186 246 288 78 98 109 111 100 88 58 33 32 27 18 11 9 5 3 4 3 4 8 8 12 16 15 21 25 30 36 34 29 9 316 268 259 252 248 240 232
289 291 292 293 294 295 297 298 301 303 304 305 304 306 307 307 304 298 290 284 281 277 270 262 256 249 246 242 226 236 239 220 214 213 212 209 210 207 208 214 200 201 209 208 199 188 202 145 176 232 300 61 103 121 117 107 100 79 24 15 16 15 12 8 2 0 1 3 6 7 6 11 13 11 11 13 21 19 11 35 40 45 56 40 11 245 236 233
285 287 288 290 291 293 296 299 301 302 303 302 302 304 304 305 304 298 290 280 276 273 269 261 254 246 242 237 229 239 241 231 231 223 217 210 205 200 204 212 207 209 206 206 196 173 224 135 176 223 79 79 122 131 124 118 122 100 30 11 12 12 10 5 360 356 359 6 10 9 5 3 7 7 9 19 16 356 342 19 52 58 66 67 62 57 112 213
281 283 284 286 287 290 294 297 300 302 303 301 301 301 302 303 302 299 290 278 271 268 266 260 253 244 241 237 232 243 241 237 242 236 229 217 205 201 202 207 210 210 206 209 187 156 155 111 169 188 103 101 132 139 134 126 116 80 49 29 18 11 3 359 358 354 357 10 15 11 5 359 2 1 3 19 17 8 6 21 56 64 70 73 74 71 72 106
278 280 281 282 283 286 290 294 297 300 302 301 300 299 299 301 301 300 291 278 268 264 263 257 250 243 241 232 222 236 233 227 233 229 231 225 214 205 202 208 210 209 209 205 185 178 157 123 168 168 102 99 133 153 150 133 102 61 53 39 18 7 355 353 354 349 352 5 8 4 360 355 352 347 355 16 26 33 29 47 67 72 76 76 78 75 74 75
275 277 278 279 280 282 285 290 294 296 300 300 299 298 297 298 299 299 292 279 266 260 258 255 249 242 240 227 218 233 230 225 228 220 219 221 217 211 206 209 209 209 212 200 191 198 175 164 185 138 102 100 115 150 161 134 81 54 51 37 16 4 354 350 348 344 345 354 356 355 354 351 345 344 356 12 27 39 38 72 80 80 82 81 83 78 73 70
275 276 277 278 278 279 281 286 290 293 297 298 297 296 295 296 297 298 293 280 266 257 254 251 246 241 238 225 220 229 222 218 223 217 214 214 214 215 212 213 211 211 213 202 197 204 196 192 181 133 132 129 120 128 128 100 71 54 46 28 15 4 350 343 342 343 344 347 347 348 351 353 346 347 359 4 10 31 47 81 87 89 89 86 87 83 78 74
276 276 277 278 278 278 279 282 285 288 292 294 294 293 292 293 294 296 292 281 265 254 249 247 243 239 234 221 220 226 223 220 219 215 215 213 212 214 213 213 211 212 215 206 200 205 206 201 176 140 142 135 126 122 102 72 43 27 24 13 4 352 341 338 337 336 340 343 344 350 0 7 355 345 354 0 359 12 55 84 89 95 95 90 89 87 86 83
277 278 278 278 278 278 279 281 283 285 289 291 291 290 290 290 291 294 291 279 264 252 247 243 240 237 231 222 223 229 229 226 222 219 218 215 213 213 212 213 212 213 216 209 204 205 200 194 172 144 138 135 127 113 97 76 35 12 15 9 349 332 328 329 329 327 333 339 342 356 7 4 352 339 337 346 356 15 67 83 83 95 99 98 95 91 91 90
278 278 278 279 279 278 279 280 282 284 286 288 287 286 286 285 288 289 284 274 262 251 246 243 240 237 231 226 229 234 232 224 222 222 221 218 215 214 213 213 215 216 216 210 208 205 195 184 167 149 145 145 131 113 111 112 71 15 14 17 350 323 320 321 324 324 330 335 335 344 351 347 338 330 327 324 349 67 78 87 82 92 99 102 101 98 96 93
277 277 278 278 278 278 278 279 281 282 283 284 283 282 282 282 284 283 280 276 265 250 243 243 240 236 232 228 228 232 231 223 220 220 221 220 216 216 216 215 215 217 215 208 209 206 189 175 166 156 148 146 138 128 131 122 62 337 350 2 339 319 317 319 323 324 326 328 326 325 333 337 332 328 323 296 203 141 114 107 94 93 99 103 104 103 101 97
275 276 276 277 277 277 277 278 278 279 279 279 278 278 278 278 279 278 280 278 267 251 242 239 239 236 234 231 226 229 230 224 221 222 224 221 217 218 218 217 216 215 211 206 211 205 180 170 168 157 144 142 146 135 123 98 15 341 343 332 315 312 311 310 311 314 317 318 320 322 327 332 334 336 328 213 195 174 142 133 121 109 107 107 106 106 106 103
274 274 274 274 274 274 275 275 275 274 274 274 273 274 274 274 275 277 276 270 261 251 241 237 237 235 233 232 228 229 231 228 223 226 229 225 220 219 218 221 217 214 211 209 213 198 171 176 175 162 146 139 135 117 96 61 18 345 331 307 303 305 304 303 298 298 304 311 320 326 327 326 333 338 306 202 202 184 154 150 144 130 120 110 106 108 111 112
273 273 273 272 272 271 271 271 270 270 269 268 268 269 270 271 273 272 268 263 257 247 239 236 233 231 231 229 226 226 226 227 224 226 230 226 219 216 218 221 218 216 213 213 212 183 166 184 183 167 148 138 128 116 71 47 27 335 327 319 306 297 297 300 291 289 297 306 319 325 323 321 327 330 262 213 207 191 168 162 160 148 132 116 109 110 114 116
275 274 273 272 270 270 268 267 266 265 264 263 263 264 265 267 270 269 264 259 253 245 238 236 234 231 230 226 223 221 218 219 219 220 224 223 219 218 218 220 219 217 213 214 207 174 174 192 190 169 153 152 144 118 69 42 33 315 313 323 316 302 297 298 291 294 298 301 311 315 317 316 313 306 231 215 208 192 183 176 170 167 146 126 118 115 112 111
276 275 273 271 269 268 266 265 263 261 260 258 256 256 255 256 259 261 260 254 249 245 240 237 234 232 229 225 223 220 215 217 221 224 225 225 224 221 219 219 219 217 214 215 204 183 189 197 191 178 171 173 162 115 88 149 317 296 283 290 313 313 307 306 307 315 313 306 308 309 314 311 298 289 244 228 222 204 197 191 178 179 163 140 128 121 113 104
276 274 272 270 268 266 264 263 261 259 256 253 252 250 248 248 249 251 255 253 248 244 239 236 234 231 229 227 225 222 218 218 224 227 226 228 228 223 221 218 217 215 213 213 202 192 202 200 189 195 202 197 182 104 88 153 265 277 265 275 296 300 304 310 314 323 326 318 309 306 309 303 294 291 262 239 239 227 212 203 190 185 174 153 141 130 120 108
276 274 271 268 266 264 263 261 260 258 255 252 249 245 243 245 244 243 248 251 248 240 236 236 234 231 229 229 227 225 222 218 222 224 221 228 229 225 223 218 216 215 211 215 206 193 201 201 194 201 211 203 180 67 97 151 196 238 254 284 293 290 298 303 298 304 316 328 329 319 312 305 297 280 247 231 229 229 224 222 214 203 184 161 147 136 126 118
275 274 271 268 264 262 261 260 259 256 253 249 244 240 239 240 240 240 244 246 244 237 233 234 233 230 228 229 225 224 224 220 222 222 216 222 227 225 224 219 218 219 217 218 207 199 204 198 194 203 200 183 159 172 200 184 203 227 244 266 277 288 296 296 288 292 308 325 330 324 317 315 305 261 238 230 224 226 226 236 251 254 230 179 149 136 130 125
272 274 273 268 263 260 259 257 256 254 251 246 240 236 234 235 237 239 241 239 234 229 227 228 227 225 226 228 223 222 224 221 222 221 214 218 224 223 222 218 215 219 224 224 208 200 204 196 194 195 184 180 177 194 204 205 221 233 248 259 273 295 300 295 290 299 314 322 322 316 312 317 316 266 242 236 236 238 227 234 249 248 251 249 153 132 131 130
269 270 272 269 261 257 255 254 253 252 249 244 236 231 230 232 233 236 237 231 221 219 222 223 220 216 220 226 222 218 219 220 221 221 215 218 222 220 218 218 216 218 224 226 213 196 195 201 202 189 178 185 188 196 207 219 230 237 250 258 272 299 305 301 303 309 318 322 315 309 307 312 326 297 254 250 259 254 227 231 234 197 178 239 218 128 130 131
270 266 266 267 261 254 252 251 250 250 246 240 233 228 228 230 231 234 230 215 207 209 213 218 216 209 208 220 222 215 216 220 220 219 217 221 224 220 217 218 220 223 226 228 220 204 204 210 206 187 172 171 172 182 193 204 225 239 245 255 276 297 304 314 319 317 322 318 306 302 303 307 319 313 269 258 257 240 217 218 211 178 165 199 220 140 130 127
273 265 260 262 260 253 251 250 248 248 244 237 229 225 227 230 231 228 214 195 190 196 206 214 215 215 213 219 223 215 215 220 220 219 219 224 227 222 219 221 222 225 228 231 222 212 219 219 203 182 165 159 159 164 169 175 206 239 250 259 274 282 284 293 306 313 315 303 297 297 298 300 306 313 292 253 234 219 219 212 185 167 171 193 210 203 146 129
273 265 257 255 255 253 250 249 247 244 239 232 224 222 225 226 226 218 202 191 188 185 190 192 201 220 222 224 227 222 223 225 221 219 216 221 225 221 219 221 223 225 228 231 224 214 221 219 205 185 168 166 166 169 172 174 196 230 251 263 272 274 270 268 273 287 296 291 292 298 294 294 302 319 323 236 214 215 226 220 190 172 178 190 208 215 180 148
274 266 256 250 249 249 247 245 244 239 232 225 219 218 221 219 216 205 190 188 193 191 182 159 155 229 228 228 229 225 229 231 226 220 212 212 217 216 216 217 221 224 224 227 225 213 210 210 205 199 178 175 181 187 189 188 197 215 231 243 251 258 258 255 258 269 278 280 285 293 295 301 317 331 343 217 205 221 232 229 209 182 178 188 209 219 200 190
274 266 254 247 245 244 241 239 238 234 226 218 213 215 218 215 207 194 182 181 189 194 192 183 180 302 276 231 222 219 224 227 230 227 214 209 215 213 214 218 221 224 222 224 224 213 209 210 204 201 185 179 184 200 209 204 204 209 218 230 237 239 246 250 254 263 271 275 281 288 291 301 324 332 337 0 204 224 226 226 214 192 182 183 202 228 222 217
276 265 251 244 241 239 236 233 231 227 220 213 209 211 215 212 199 185 180 183 187 183 182 199 204 204 350 269 204 212 220 217 222 228 223 218 219 216 215 217 223 228 224 221 221 213 207 207 202 193 171 165 161 153 216 223 217 216 222 233 235 235 245 251 252 259 267 275 280 282 282 296 331 340 334 343 315 245 222 220 211 196 186 175 185 230 231 225
274 261 247 240 237 233 230 228 225 220 213 206 207 210 212 204 187 178 179 185 190 177 158 180 206 181 24 21 167 217 223 220 218 218 221 224 224 226 227 221 223 230 228 219 215 204 190 190 188 176 158 165 183 187 212 241 233 226 228 232 231 235 248 252 253 261 270 279 280 276 282 315 355 349 335 335 332 287 232 225 217 203 191 176 188 223 225 218
269 258 244 236 231 228 224 222 219 214 206 200 207 212 205 187 176 177 180 182 188 180 164 165 171 157 169 340 344 228 201 215 221 216 222 227 225 236 242 233 228 229 228 219 205 189 179 177 166 156 151 187 217 209 199 199 215 219 220 226 232 240 249 253 258 265 273 285 289 291 314 354 6 350 339 336 333 320 296 281 278 243 199 188 202 222 224 218
265 253 240 232 229 226 221 219 215 208 201 198 206 207 191 179 177 181 185 184 185 179 173 173 157 143 182 219 235 106 99 162 249 251 255 249 237 229 225 233 234 223 223 221 203 184 177 172 161 160 172 208 221 213 195 182 180 185 204 227 242 250 256 267 275 274 281 293 295 306 321 329 343 348 348 347 330 312 309 308 303 273 214 200 207 220 228 226
259 251 243 235 232 229 222 218 213 205 201 201 204 199 186 179 182 187 190 190 187 178 178 184 168 153 174 186 183 192 223 266 285 299 303 308 292 214 199 239 248 219 212 213 201 188 180 172 166 169 181 206 221 215 201 194 201 213 239 254 248 250 260 273 273 268 275 283 287 303 317 327 336 340 341 341 333 319 308 292 287 269 220 203 203 216 230 233
252 248 243 232 225 224 220 216 212 204 202 201 196 188 183 183 187 192 195 197 194 184 183 188 173 161 176 180 180 197 219 239 260 273 284 307 315 178 223 320 320 252 208 195 192 192 185 171 162 166 172 157 176 196 192 201 228 248 265 253 236 240 259 279 278 279 275 270 286 304 316 330 334 328 326 327 327 332 324 300 283 260 212 199 201 214 229 235
243 240 239 230 219 217 217 214 211 207 205 204 198 188 186 188 193 197 199 199 195 187 185 187 175 168 179 182 182 192 204 214 231 245 265 298 297 190 257 314 323 304 240 190 185 190 187 174 167 176 177 130 112 174 189 201 223 229 236 238 233 234 251 254 255 275 278 273 284 292 293 307 313 307 317 327 326 332 326 303 282 247 201 191 205 218 230 237
239 237 240 238 226 218 216 213 211 209 208 208 207 202 198 197 198 201 202 200 195 191 189 186 179 174 181 184 184 190 200 205 210 220 241 278 268 214 259 295 280 292 281 201 182 186 189 185 181 186 183 149 145 187 200 205 196 190 223 246 245 234 241 234 229 242 255 261 270 276 281 294 294 287 301 316 321 325 315 292 273 238 201 189 208 225 233 236
239 238 239 243 236 225 220 216 212 211 211 210 211 210 206 201 201 205 207 204 199 198 191 180 180 182 182 183 184 188 197 201 198 205 218 246 257 218 238 268 248 275 283 220 186 185 192 193 194 196 194 182 175 191 204 208 197 177 220 253 256 244 250 262 248 242 245 251 259 266 274 280 277 284 300 302 305 314 300 266 249 234 212 202 216 236 243 239
238 237 235 238 238 231 225 222 218 214 214 215 216 216 211 206 206 209 211 206 203 202 186 170 179 187 183 181 184 187 192 194 193 196 204 223 239 220 218 237 249 276 272 219 194 189 195 199 198 195 194 193 193 200 208 209 206 200 215 239 251 248 250 260 263 256 254 257 264 269 273 276 281 294 298 285 288 302 285 238 238 237 224 223 242 257 256 246
236 235 232 230 234 233 228 225 223 218 216 219 221 223 221 214 211 212 211 204 201 199 181 166 176 187 187 183 180 175 176 192 214 201 191 204 216 213 214 228 242 253 239 209 199 193 199 206 200 197 200 206 213 216 216 213 210 210 217 228 239 244 242 244 253 258 256 260 268 275 276 279 289 293 282 271 267 265 244 216 238 245 237 236 247 254 253 249
235 232 229 228 230 232 230 227 223 218 215 217 222 226 226 221 217 216 212 205 203 197 181 171 176 182 183 179 174 173 179 188 191 182 185 195 198 205 220 224 226 230 221 211 204 194 195 204 204 208 218 224 222 218 217 219 217 217 223 231 236 241 241 239 242 248 251 256 265 274 277 277 278 276 271 260 245 241 235 220 231 242 240 238 243 247 249 251
234 230 228 228 229 230 232 230 224 218 213 214 220 224 226 225 222 220 215 211 209 199 185 180 179 176 173 172 174 183 182 172 169 177 190 201 199 201 210 209 216 220 213 213 214 205 199 199 204 212 218 222 224 223 220 218 221 226 232 235 235 240 242 241 243 249 251 254 261 272 275 265 248 244 236 212 223 237 235 224 229 237 240 241 244 247 251 256
234 229 225 228 230 230 232 232 228 221 214 212 217 221 224 226 224 222 221 220 212 199 192 189 183 175 172 173 179 183 175 171 184 189 189 197 201 202 201 203 216 220 211 212 222 217 204 196 207 214 216 222 227 230 231 229 229 236 244 247 244 242 240 240 248 255 254 253 261 268 262 243 217 213 206 216 238 238 226 227 234 242 246 248 249 253 260 264
235 229 224 225 229 230 232 234 231 225 219 215 216 219 221 222 221 221 223 222 212 202 196 190 181 174 174 177 181 185 186 196 202 189 184 191 200 208 212 211 218 224 220 217 223 220 205 196 211 218 215 223 229 232 237 239 241 248 256 259 253 247 245 246 250 253 250 249 258 260 248 240 243 240 240 250 252 239 232 238 246 254 258 259 260 263 265 266
235 230 225 224 228 230 231 234 233 228 222 218 217 218 219 220 220 221 222 220 213 206 198 188 180 176 180 185 188 191 200 216 210 192 186 189 195 212 220 215 214 218 218 214 218 218 207 199 211 222 220 227 234 235 238 240 244 249 258 266 257 245 246 250 250 249 249 253 257 255 251 253 260 267 273 274 268 267 268 264 262 266 269 270 268 267 267 269
236 232 226 224 227 228 230 233 234 231 226 221 218 218 218 220 220 219 220 220 217 212 203 192 186 185 189 193 196 195 198 215 214 197 188 188 193 207 216 212 206 206 211 214 214 213 207 204 210 219 221 231 239 241 241 241 243 248 254 263 261 248 246 251 251 248 251 256 255 258 267 272 273 283 293 293 288 288 287 280 274 273 272 272 271 270 272 274